| time (UTC) | temp C | wind direction | speed KPH | gust KPH | rain 1hr cm | rain 24hr cm | rain mn cm | humidity % | barometer mb |
| 20260502224204 | 25 | 124 | 1.6 | 4.8 | 0.00 | 0.03 | 0.03 | 38 | 1015.3 |
| 20260502223705 | 25 | 169 | 3.2 | 8.0 | 0.00 | 0.03 | 0.03 | 38 | 1015.3 |
| 20260502223204 | 25 | 122 | 1.6 | 8.0 | 0.00 | 0.03 | 0.03 | 37 | 1015.3 |
| 20260502222705 | 25 | 125 | 3.2 | 8.0 | 0.00 | 0.03 | 0.03 | 38 | 1015.3 |
| 20260502222205 | 25 | 124 | 1.6 | 11.3 | 0.00 | 0.03 | 0.03 | 39 | 1015.3 |
| 20260502221704 | 25 | 118 | 1.6 | 8.0 | 0.00 | 0.03 | 0.03 | 39 | 1015.3 |
| 20260502221204 | 25 | 183 | 3.2 | 9.7 | 0.00 | 0.03 | 0.03 | 37 | 1015.3 |
| 20260502220704 | 26 | 194 | 3.2 | 9.7 | 0.00 | 0.03 | 0.03 | 38 | 1015.2 |
| 20260502215704 | 26 | 144 | 3.2 | 8.0 | 0.00 | 0.03 | 0.03 | 36 | 1015.1 |
| 20260502215205 | 26 | 126 | 3.2 | 8.0 | 0.00 | 0.03 | 0.03 | 38 | 1015.0 |
| 20260502214705 | 26 | 105 | 1.6 | 8.0 | 0.00 | 0.03 | 0.03 | 40 | 1015.0 |
| 20260502214204 | 26 | 140 | 1.6 | 8.0 | 0.00 | 0.03 | 0.03 | 40 | 1015.0 |
| 20260502213704 | 26 | 118 | 1.6 | 4.8 | 0.00 | 0.03 | 0.03 | 39 | 1014.9 |
| 20260502213204 | 25 | 137 | 3.2 | 9.7 | 0.00 | 0.03 | 0.03 | 38 | 1014.9 |
| 20260502212704 | 26 | 194 | 3.2 | 8.0 | 0.00 | 0.03 | 0.03 | 38 | 1015.0 |
| 20260502212204 | 25 | 165 | 1.6 | 11.3 | 0.00 | 0.03 | 0.03 | 40 | 1014.9 |
| 20260502211704 | 25 | 146 | 4.8 | 12.9 | 0.00 | 0.03 | 0.03 | 40 | 1015.0 |
| 20260502211205 | 26 | 129 | 1.6 | 8.0 | 0.00 | 0.03 | 0.03 | 41 | 1015.0 |
| 20260502210704 | 26 | 196 | 3.2 | 8.0 | 0.00 | 0.03 | 0.03 | 38 | 1015.1 |
| 20260502210204 | 26 | 130 | 1.6 | 9.7 | 0.00 | 0.03 | 0.03 | 40 | 1015.1 |
| 20260502205205 | 26 | 143 | 1.6 | 9.7 | 0.00 | 0.03 | 0.03 | 41 | 1015.2 |
| 20260502204704 | 26 | 110 | 1.6 | 9.7 | 0.00 | 0.03 | 0.03 | 41 | 1015.2 |
| 20260502204204 | 25 | 113 | 3.2 | 11.3 | 0.00 | 0.03 | 0.03 | 42 | 1015.2 |
| 20260502203705 | 25 | 165 | 0.0 | 3.2 | 0.00 | 0.03 | 0.03 | 41 | 1015.3 |
| 20260502203204 | 25 | 230 | 1.6 | 8.0 | 0.00 | 0.03 | 0.03 | 41 | 1015.3 |
| 20260502202704 | 25 | 188 | 4.8 | 9.7 | 0.00 | 0.03 | 0.03 | 42 | 1015.5 |
| 20260502201704 | 25 | 136 | 4.8 | 11.3 | 0.00 | 0.03 | 0.03 | 42 | 1015.5 |
| 20260502201205 | 25 | 115 | 1.6 | 11.3 | 0.00 | 0.03 | 0.03 | 43 | 1015.6 |
| 20260502200204 | 25 | 126 | 3.2 | 9.7 | 0.00 | 0.03 | 0.03 | 41 | 1015.6 |
| 20260502195704 | 25 | 113 | 1.6 | 8.0 | 0.00 | 0.03 | 0.03 | 43 | 1015.7 |
| 20260502194704 | 25 | 170 | 1.6 | 9.7 | 0.00 | 0.03 | 0.03 | 42 | 1015.8 |
| 20260502193704 | 25 | 201 | 3.2 | 9.7 | 0.00 | 0.03 | 0.03 | 44 | 1015.7 |
| 20260502193204 | 24 | 124 | 3.2 | 11.3 | 0.00 | 0.03 | 0.03 | 43 | 1015.8 |
| 20260502192704 | 24 | 165 | 1.6 | 9.7 | 0.00 | 0.03 | 0.03 | 43 | 1015.8 |
| 20260502191704 | 25 | 129 | 3.2 | 12.9 | 0.00 | 0.03 | 0.03 | 43 | 1015.9 |
| 20260502191204 | 25 | 224 | 1.6 | 9.7 | 0.00 | 0.03 | 0.03 | 47 | 1015.9 |
| 20260502190704 | 25 | 142 | 3.2 | 9.7 | 0.00 | 0.03 | 0.03 | 43 | 1015.8 |
| 20260502185704 | 25 | 138 | 3.2 | 8.0 | 0.00 | 0.03 | 0.03 | 44 | 1015.9 |
| 20260502185205 | 25 | 112 | 1.6 | 8.0 | 0.00 | 0.03 | 0.03 | 44 | 1015.9 |
| 20260502184704 | 24 | 143 | 1.6 | 8.0 | 0.00 | 0.03 | 0.03 | 50 | 1015.9 |
| 20260502184204 | 24 | 174 | 3.2 | 9.7 | 0.00 | 0.03 | 0.03 | 46 | 1016.0 |
| 20260502183704 | 24 | 121 | 3.2 | 12.9 | 0.00 | 0.03 | 0.03 | 47 | 1016.1 |
| 20260502183204 | 25 | 140 | 3.2 | 9.7 | 0.00 | 0.03 | 0.03 | 47 | 1016.1 |
| 20260502182705 | 24 | 118 | 1.6 | 9.7 | 0.00 | 0.03 | 0.03 | 50 | 1016.2 |
| 20260502182205 | 24 | 161 | 3.2 | 11.3 | 0.00 | 0.03 | 0.03 | 48 | 1016.3 |
| 20260502181705 | 24 | 128 | 1.6 | 11.3 | 0.00 | 0.03 | 0.03 | 52 | 1016.4 |
| 20260502181205 | 23 | 124 | 3.2 | 4.8 | 0.00 | 0.03 | 0.03 | 53 | 1016.4 |
| 20260502180706 | 23 | 243 | 3.2 | 9.7 | 0.00 | 0.03 | 0.03 | 51 | 1016.4 |
| 20260502170205 | 23 | 120 | 6.4 | 11.3 | 0.00 | 0.03 | 0.03 | 59 | 1017.0 |
| 20260502164205 | 23 | 241 | 3.2 | 9.7 | 0.00 | 0.03 | 0.03 | 59 | 1017.4 |
| 20260502163705 | 22 | 152 | 0.0 | 8.0 | 0.00 | 0.03 | 0.03 | 61 | 1017.9 |
| 20260502163206 | 22 | 204 | 3.2 | 8.0 | 0.00 | 0.03 | 0.03 | 61 | 1017.7 |
| 20260502162705 | 22 | 142 | 1.6 | 9.7 | 0.00 | 0.03 | 0.03 | 63 | 1018.6 |
| 20260502162206 | 22 | 105 | 3.2 | 8.0 | 0.00 | 0.03 | 0.03 | 62 | 1018.1 |
| 20260502161705 | 22 | 110 | 3.2 | 8.0 | 0.00 | 0.03 | 0.03 | 62 | 1018.4 |
| 20260502161205 | 22 | 148 | 0.0 | 8.0 | 0.00 | 0.03 | 0.03 | 61 | 1017.5 |
| 20260502160705 | 22 | 115 | 3.2 | 12.9 | 0.00 | 0.03 | 0.03 | 63 | 1018.2 |
| 20260502160205 | 22 | 119 | 3.2 | 11.3 | 0.00 | 0.03 | 0.03 | 63 | 1018.0 |
| 20260502152205 | 21 | 206 | 4.8 | 9.7 | 0.00 | 0.03 | 0.03 | 66 | 1018.0 |
| 20260502151705 | 21 | 262 | 1.6 | 4.8 | 0.00 | 0.03 | 0.03 | 65 | 1017.7 |
| 20260502150705 | 21 | 134 | 3.2 | 4.8 | 0.00 | 0.03 | 0.03 | 67 | 1018.2 |
| 20260502150205 | 20 | 121 | 1.6 | 4.8 | 0.00 | 0.03 | 0.03 | 68 | 1018.8 |
| 20260502130705 | 14 | 106 | 1.6 | 3.2 | 0.00 | 0.03 | 0.03 | 90 | 1055.0 |
| 20260502130205 | 14 | 216 | 0.0 | 1.6 | 0.00 | 0.03 | 0.03 | 91 | 1056.9 |
| 20260502123706 | 13 | 121 | 0.0 | 0.0 | 0.00 | 0.03 | 0.03 | 92 | 1060.4 |
| 20260502122705 | 13 | 121 | 0.0 | 0.0 | 0.00 | 0.03 | 0.03 | 92 | 1060.4 |
| 20260502122205 | 13 | 121 | 0.0 | 0.0 | 0.00 | 0.03 | 0.03 | 92 | 1060.1 |
| 20260502121205 | 13 | 133 | 0.0 | 1.6 | 0.00 | 0.03 | 0.03 | 92 | 1059.3 |
| 20260502120705 | 13 | 276 | 0.0 | 0.0 | 0.00 | 0.03 | 0.03 | 92 | 1059.1 |
| 20260502120205 | 13 | 276 | 0.0 | 0.0 | 0.00 | 0.03 | 0.03 | 92 | 1058.6 |
| 20260502115705 | 13 | 276 | 0.0 | 0.0 | 0.00 | 0.03 | 0.03 | 92 | 1058.4 |
| 20260502115206 | 13 | 276 | 0.0 | 0.0 | 0.00 | 0.03 | 0.03 | 92 | 1058.2 |
| 20260502114705 | 13 | 276 | 0.0 | 0.0 | 0.00 | 0.03 | 0.03 | 92 | 1058.0 |
| 20260502114205 | 12 | 276 | 0.0 | 0.0 | 0.00 | 0.03 | 0.03 | 92 | 1057.5 |
| 20260502113705 | 12 | 276 | 0.0 | 0.0 | 0.00 | 0.03 | 0.03 | 92 | 1057.4 |
| 20260502113205 | 12 | 276 | 0.0 | 0.0 | 0.00 | 0.03 | 0.03 | 92 | 1057.4 |
| 20260502112705 | 12 | 276 | 0.0 | 0.0 | 0.00 | 0.03 | 0.03 | 92 | 1057.3 |
| 20260502112205 | 12 | 276 | 0.0 | 0.0 | 0.00 | 0.03 | 0.03 | 92 | 1057.2 |
| 20260502110705 | 12 | 276 | 0.0 | 0.0 | 0.00 | 0.03 | 0.03 | 92 | 1057.5 |
| 20260502110205 | 12 | 276 | 0.0 | 0.0 | 0.00 | 0.03 | 0.03 | 92 | 1057.6 |
| 20260502105705 | 12 | 276 | 0.0 | 0.0 | 0.00 | 0.03 | 0.03 | 92 | 1057.4 |
| 20260502105205 | 12 | 276 | 0.0 | 0.0 | 0.00 | 0.03 | 0.03 | 92 | 1057.5 |
| 20260502104705 | 12 | 276 | 1.6 | 3.2 | 0.00 | 0.03 | 0.03 | 92 | 1057.6 |
| 20260502104205 | 12 | 114 | 0.0 | 0.0 | 0.00 | 0.03 | 0.03 | 92 | 1057.9 |
| 20260502103705 | 12 | 114 | 1.6 | 4.8 | 0.00 | 0.03 | 0.03 | 92 | 1057.7 |
| 20260502103205 | 12 | 115 | 1.6 | 3.2 | 0.00 | 0.03 | 0.03 | 92 | 1057.8 |
| 20260502102705 | 12 | 160 | 0.0 | 1.6 | 0.00 | 0.03 | 0.03 | 92 | 1058.0 |
| 20260502102205 | 12 | 116 | 0.0 | 1.6 | 0.00 | 0.03 | 0.03 | 92 | 1058.0 |
| 20260502101705 | 12 | 117 | 0.0 | 0.0 | 0.00 | 0.03 | 0.03 | 92 | 1057.9 |
| 20260502100705 | 12 | 127 | 0.0 | 3.2 | 0.00 | 0.03 | 0.03 | 92 | 1057.7 |
| 20260502091205 | 12 | 187 | 1.6 | 4.8 | 0.00 | 0.05 | 0.03 | 93 | 1058.9 |
| 20260502090705 | 12 | 160 | 1.6 | 4.8 | 0.00 | 0.05 | 0.03 | 93 | 1059.4 |
| 20260502090205 | 12 | 102 | 1.6 | 4.8 | 0.00 | 0.05 | 0.03 | 93 | 1059.9 |
| 20260502071205 | 12 | 241 | 0.0 | 3.2 | 0.00 | 0.05 | 0.03 | 93 | 1059.3 |
| 20260502070705 | 12 | 253 | 0.0 | 0.0 | 0.00 | 0.05 | 0.03 | 93 | 1059.5 |
| 20260502065705 | 12 | 223 | 0.0 | 1.6 | 0.00 | 0.05 | 0.03 | 93 | 1058.5 |
| 20260502065205 | 12 | 102 | 0.0 | 3.2 | 0.00 | 0.05 | 0.03 | 93 | 1058.7 |
| 20260502064705 | 12 | 85 | 1.6 | 3.2 | 0.00 | 0.05 | 0.03 | 93 | 1059.0 |
| 20260502064205 | 12 | 230 | 0.0 | 3.2 | 0.00 | 0.05 | 0.03 | 93 | 1058.8 |
| 20260502063204 | 12 | 124 | 1.6 | 4.8 | 0.00 | 0.05 | 0.03 | 93 | 1058.6 |
| 20260502062705 | 13 | 123 | 1.6 | 3.2 | 0.00 | 0.05 | 0.03 | 93 | 1058.8 |
| 20260502062205 | 13 | 219 | 0.0 | 4.8 | 0.00 | 0.05 | 0.03 | 92 | 1059.0 |
| 20260502061705 | 13 | 154 | 0.0 | 4.8 | 0.00 | 0.05 | 0.03 | 93 | 1059.0 |
| 20260502060705 | 13 | 184 | 0.0 | 3.2 | 0.00 | 0.05 | 0.03 | 92 | 1058.2 |
| 20260502060205 | 12 | 115 | 0.0 | 1.6 | 0.00 | 0.05 | 0.03 | 92 | 1058.0 |
| 20260502055205 | 13 | 232 | 0.0 | 3.2 | 0.00 | 0.05 | 0.03 | 92 | 1057.7 |
| 20260502054705 | 13 | 112 | 0.0 | 0.0 | 0.00 | 0.05 | 0.03 | 92 | 1057.5 |
| 20260502054205 | 13 | 112 | 1.6 | 4.8 | 0.00 | 0.05 | 0.03 | 92 | 1057.4 |
| 20260502053705 | 13 | 110 | 1.6 | 3.2 | 0.00 | 0.05 | 0.03 | 92 | 1057.3 |
| 20260502053204 | 13 | 118 | 0.0 | 4.8 | 0.00 | 0.05 | 0.03 | 92 | 1057.7 |
| 20260502052704 | 13 | 160 | 0.0 | 1.6 | 0.00 | 0.05 | 0.03 | 92 | 1057.9 |
| 20260502052205 | 13 | 123 | 1.6 | 3.2 | 0.00 | 0.05 | 0.03 | 92 | 1058.2 |
| 20260502051705 | 13 | 241 | 0.0 | 4.8 | 0.00 | 0.05 | 0.03 | 92 | 1058.2 |
| 20260502051204 | 13 | 96 | 1.6 | 3.2 | 0.00 | 0.05 | 0.03 | 92 | 1058.0 |
| 20260502050705 | 13 | 106 | 0.0 | 1.6 | 0.00 | 0.05 | 0.03 | 92 | 1058.2 |
| 20260502045705 | 13 | 230 | 1.6 | 3.2 | 0.00 | 0.03 | 0.03 | 92 | 1058.4 |
| 20260502045204 | 13 | 205 | 3.2 | 4.8 | 0.00 | 0.03 | 0.03 | 92 | 1058.1 |
| 20260502044705 | 13 | 205 | 1.6 | 4.8 | 0.00 | 0.03 | 0.03 | 92 | 1058.0 |
| 20260502043705 | 13 | 116 | 0.0 | 3.2 | 0.00 | 0.03 | 0.03 | 92 | 1058.2 |
| 20260502043204 | 13 | 191 | 0.0 | 4.8 | 0.00 | 0.03 | 0.03 | 92 | 1058.1 |
| 20260502042205 | 13 | 128 | 1.6 | 3.2 | 0.00 | 0.03 | 0.03 | 92 | 1058.2 |
| 20260502041704 | 13 | 130 | 0.0 | 4.8 | 0.00 | 0.03 | 0.03 | 92 | 1058.3 |
| 20260502041205 | 13 | 58 | 1.6 | 4.8 | 0.00 | 0.03 | 0.03 | 92 | 1058.2 |
| 20260502040704 | 13 | 111 | 1.6 | 4.8 | 0.00 | 0.03 | 0.03 | 92 | 1058.1 |
| 20260502040205 | 13 | 107 | 1.6 | 3.2 | 0.00 | 0.03 | 0.03 | 92 | 1058.1 |
| 20260502035704 | 13 | 107 | 1.6 | 3.2 | 0.00 | 0.03 | 0.03 | 92 | 1058.1 |
| 20260502035204 | 13 | 89 | 3.2 | 4.8 | 0.00 | 0.03 | 0.03 | 92 | 1058.4 |
| 20260502034704 | 13 | 195 | 0.0 | 3.2 | 0.00 | 0.03 | 0.03 | 92 | 1058.7 |
| 20260502034205 | 13 | 177 | 0.0 | 3.2 | 0.00 | 0.03 | 0.03 | 92 | 1059.0 |
| 20260502033205 | 13 | 265 | 0.0 | 3.2 | 0.00 | 0.03 | 0.03 | 93 | 1059.4 |
| 20260502031204 | 13 | 111 | 1.6 | 3.2 | 0.00 | 0.03 | 0.03 | 93 | 1059.7 |
| 20260502030205 | 13 | 120 | 0.0 | 3.2 | 0.00 | 0.03 | 0.03 | 93 | 1060.0 |
| 20260502024705 | 13 | 97 | 1.6 | 3.2 | 0.00 | 0.03 | 0.03 | 93 | 1060.2 |
| 20260502024204 | 13 | 114 | 1.6 | 4.8 | 0.00 | 0.03 | 0.03 | 93 | 1060.3 |
| 20260502023704 | 13 | 165 | 0.0 | 4.8 | 0.00 | 0.03 | 0.03 | 93 | 1060.6 |
| 20260502023204 | 13 | 205 | 0.0 | 3.2 | 0.00 | 0.03 | 0.03 | 93 | 1060.7 |
| 20260502022705 | 13 | 91 | 1.6 | 3.2 | 0.00 | 0.03 | 0.03 | 93 | 1060.7 |
| 20260502022204 | 13 | 101 | 1.6 | 4.8 | 0.00 | 0.03 | 0.03 | 93 | 1060.7 |
| 20260502021704 | 13 | 143 | 1.6 | 3.2 | 0.00 | 0.03 | 0.03 | 93 | 1060.7 |
| 20260502020704 | 13 | 187 | 0.0 | 3.2 | 0.00 | 0.03 | 0.03 | 93 | 1060.7 |
| 20260502020204 | 13 | 212 | 0.0 | 1.6 | 0.00 | 0.03 | 0.03 | 93 | 1060.7 |
| 20260502015704 | 13 | 216 | 0.0 | 3.2 | 0.00 | 0.03 | 0.03 | 93 | 1060.7 |
| 20260502015204 | 13 | 193 | 3.2 | 4.8 | 0.00 | 0.03 | 0.03 | 93 | 1060.5 |
| 20260502014704 | 13 | 223 | 0.0 | 4.8 | 0.00 | 0.03 | 0.03 | 93 | 1060.7 |
| 20260502014204 | 13 | 118 | 1.6 | 4.8 | 0.00 | 0.03 | 0.03 | 93 | 1060.2 |
| 20260502013704 | 13 | 163 | 0.0 | 3.2 | 0.00 | 0.03 | 0.03 | 93 | 1060.4 |
| 20260502013205 | 13 | 129 | 1.6 | 3.2 | 0.00 | 0.03 | 0.03 | 93 | 1060.1 |
| 20260502012705 | 13 | 83 | 1.6 | 3.2 | 0.00 | 0.03 | 0.03 | 93 | 1059.8 |
| 20260502012205 | 13 | 94 | 1.6 | 3.2 | 0.00 | 0.03 | 0.03 | 93 | 1059.3 |
| 20260502011204 | 13 | 241 | 1.6 | 4.8 | 0.00 | 0.03 | 0.03 | 93 | 1058.9 |
| 20260502010705 | 13 | 169 | 1.6 | 3.2 | 0.00 | 0.03 | 0.03 | 93 | 1058.5 |
| 20260502010204 | 13 | 152 | 1.6 | 4.8 | 0.00 | 0.03 | 0.03 | 93 | 1058.1 |
| 20260502005704 | 13 | 134 | 0.0 | 1.6 | 0.00 | 0.03 | 0.03 | 93 | 1058.3 |
| 20260502005205 | 13 | 255 | 3.2 | 4.8 | 0.00 | 0.03 | 0.03 | 93 | 1058.5 |
| 20260502004205 | 13 | 126 | 1.6 | 3.2 | 0.00 | 0.03 | 0.03 | 93 | 1059.3 |
| 20260502002704 | 13 | 188 | 1.6 | 4.8 | 0.00 | 0.03 | 0.03 | 93 | 1059.1 |
| 20260502002204 | 13 | 76 | 0.0 | 3.2 | 0.00 | 0.03 | 0.03 | 93 | 1059.6 |
| 20260502001704 | 13 | 111 | 0.0 | 1.6 | 0.00 | 0.03 | 0.03 | 93 | 1059.5 |
| 20260502001204 | 13 | 112 | 1.6 | 3.2 | 0.00 | 0.03 | 0.03 | 93 | 1059.1 |
| 20260502000204 | 13 | 258 | 0.0 | 4.8 | 0.00 | 0.03 | 0.03 | 93 | 1059.8 |
| 20260501235204 | 13 | 86 | 1.6 | 4.8 | 0.00 | 0.03 | 0.03 | 93 | 1059.0 |
| 20260501234704 | 13 | 109 | 0.0 | 0.0 | 0.00 | 0.03 | 0.03 | 93 | 1058.7 |
| 20260501234204 | 13 | 109 | 0.0 | 3.2 | 0.00 | 0.03 | 0.03 | 93 | 1058.3 |
| 20260501233704 | 13 | 129 | 0.0 | 3.2 | 0.00 | 0.03 | 0.03 | 93 | 1057.7 |
| 20260501233205 | 13 | 118 | 1.6 | 3.2 | 0.00 | 0.03 | 0.03 | 93 | 1057.9 |
| 20260501232205 | 13 | 222 | 1.6 | 4.8 | 0.00 | 0.03 | 0.03 | 93 | 1058.5 |
| 20260501231204 | 13 | 106 | 0.0 | 3.2 | 0.00 | 0.03 | 0.03 | 93 | 1057.5 |
| 20260501230704 | 13 | 111 | 0.0 | 3.2 | 0.00 | 0.03 | 0.03 | 92 | 1057.2 |
| 20260501225704 | 13 | 215 | 3.2 | 4.8 | 0.00 | 0.03 | 0.03 | 92 | 1056.5 |